EHI
0 0 0 0 0 0 0 0 0 0 0 0 0 0 0 0 0 1 3 6 6 6 7 5 2 2 2 3 2 3 5 4 2 2 1 0 0 1 2 3 3 2 2
0 0 0 0 0 0 0 0 0 0 0 0 0 0 0 0 0 1 2 4 5 6 7 7 6 5 4 3 3 4 5 4 3 3 3 1 1 0 1 1 2 1 2
0 0 0 0 0 0 0 0 0 0 0 0 0 0 0 0 0 0 1 1 3 5 7 9 10 8 5 4 4 4 4 3 3 4 4 3 2 1 0 0 0 0 1
0 0 0 0 0 0 0 0 0 0 0 0 0 0 0 0 0 0 0 0 1 2 4 6 7 5 4 3 3 3 3 3 3 3 4 3 2 1 1 0 0 0 0
0 0 0 0 0 0 0 0 0 0 0 0 0 0 0 0 0 0 0 0 0 0 1 1 1 1 2 2 1 1 1 2 2 1 1 1 1 2 1 0 0 0 0
0 0 0 0 0 0 0 0 0 0 0 0 0 0 0 0 0 0 0 0 0 0 0 0 0 0 0 0 0 0 0 1 1 0 0 0 1 1 1 0 0 0 0
0 0 0 0 0 0 0 0 0 0 0 0 0 0 0 0 0 0 0 0 0 0 0 0 0 0 0 0 0 0 0 0 0 0 0 0 0 0 0 0 0 0 0
0 0 0 0 0 0 0 0 0 0 0 0 0 0 0 0 0 0 0 0 0 0 0 0 0 0 0 0 0 0 0 0 0 0 0 0 0 0 0 0 0 0 0
0 0 0 0 0 0 0 0 0 0 0 0 0 0 0 0 0 0 0 0 0 0 0 0 0 0 0 0 0 0 0 0 0 0 0 0 0 0 0 0 0 0 0
0 0 0 0 0 0 0 0 0 0 0 0 0 0 0 0 0 0 0 0 0 0 0 0 0 0 0 0 0 0 0 0 0 0 0 0 0 0 0 0 0 0 0
0 0 0 0 0 0 0 0 0 0 0 0 0 0 0 0 0 0 0 0 0 0 0 0 0 0 0 0 0 0 0 0 0 0 0 0 0 0 0 0 0 0 0
0 0 0 0 0 0 0 0 0 0 0 0 0 0 0 0 0 0 0 0 0 0 0 0 0 0 0 0 0 0 0 0 0 0 0 0 0 0 0 0 0 0 0
0 0 0 0 0 0 0 0 0 0 0 0 0 0 0 0 0 0 0 0 0 0 0 0 0 0 0 0 0 0 0 0 0 0 0 0 0 0 0 0 0 0 0
0 0 0 0 0 0 0 0 0 0 0 0 0 0 0 0 0 0 0 0 0 0 0 0 0 0 0 0 0 0 0 0 0 0 0 0 0 0 0 0 0 0 0
0 0 0 0 0 0 0 0 0 0 0 0 0 0 0 0 0 0 0 0 0 0 0 0 0 0 0 0 0 0 0 0 0 0 0 0 0 0 0 0 0 0 0
0 0 0 0 0 0 0 0 0 0 0 0 0 0 0 0 0 0 0 0 0 0 0 0 0 0 0 0 0 0 0 0 0 0 0 0 0 0 0 0 0 0 0
0 0 0 0 0 0 0 0 0 0 0 0 0 0 0 0 0 0 0 0 0 0 0 0 0 0 0 0 0 0 0 0 0 0 0 0 0 0 0 0 0 0 0
0 0 0 0 0 0 0 0 0 0 0 0 0 0 0 0 0 0 0 0 0 0 0 0 0 0 0 0 0 0 0 0 0 0 0 0 0 0 0 0 0 0 0
0 0 0 0 0 0 0 0 0 0 0 0 0 0 0 0 0 0 0 0 0 0 0 0 0 0 0 0 0 0 0 0 0 0 0 0 0 0 0 0 0 0 0
0 0 0 0 0 0 0 0 0 0 0 0 0 0 0 0 0 0 0 0 0 0 0 0 0 0 0 0 0 0 0 0 0 0 0 0 0 0 0 0 0 0 0
0 0 0 0 0 0 0 0 0 0 0 0 0 0 0 0 0 0 0 0 0 0 0 0 0 0 0 0 0 0 0 0 0 0 0 0 0 0 0 0 0 0 0
0 0 0 0 0 0 0 0 0 0 0 0 0 0 0 0 0 0 0 0 0 0 0 0 0 0 0 0 0 0 0 0 0 0 0 0 0 0 0 0 0 0 0
0 0 0 0 0 0 0 0 0 0 0 0 0 0 0 0 0 0 0 0 0 0 0 0 0 0 0 0 0 0 0 0 0 0 0 0 0 0 0 0 0 0 0
0 0 0 0 0 0 0 0 0 0 0 0 0 0 0 0 0 0 0 0 0 0 0 0 0 0 0 0 0 0 0 0 0 0 0 0 0 0 0 0 0 0 0
0 0 0 0 0 0 0 0 0 0 0 0 0 0 0 0 0 0 0 0 0 0 0 0 0 0 0 0 0 0 0 0 0 0 0 0 0 0 0 0 0 0 0
0 0 0 0 0 0 0 0 0 0 0 0 0 0 0 0 0 0 0 0 0 0 0 0 0 0 0 0 0 0 0 0 0 0 0 0 0 0 0 0 0 0 0
Wind_Speed
3 2 1 1 1 1 1 1 0 0 1 1 1 1 1 1 1 1 1 4 5 6 7 8 8 7 6 5 5 5 5 5 5 5 5 5 5 5 5 5 4 4 4
3 2 2 2 2 2 1 1 1 1 1 1 2 2 2 1 1 1 1 1 2 4 5 6 6 6 6 6 5 5 5 5 5 5 5 4 4 4 4 4 4 4 4
4 3 2 2 2 2 2 2 2 2 2 2 3 3 2 2 1 1 1 1 1 1 2 3 4 4 4 4 4 4 5 4 4 4 4 4 4 3 3 2 2 2 2
5 4 3 2 2 2 2 3 3 2 2 2 2 2 2 2 2 2 1 2 1 1 1 1 2 3 4 5 5 5 4 4 4 3 3 4 4 5 4 4 3 3 2
5 4 3 2 3 2 2 2 2 2 2 2 1 2 2 2 3 3 3 3 3 2 2 2 2 3 4 5 5 5 5 5 5 4 4 5 5 5 5 5 4 3 1
4 4 3 3 3 3 2 2 3 3 2 1 1 2 2 3 3 3 3 3 3 3 3 3 2 2 2 3 3 4 5 6 6 5 6 5 5 5 5 5 4 3 1
4 4 3 3 3 3 3 4 3 3 2 1 1 1 2 3 4 3 3 3 4 4 4 3 3 2 2 4 4 5 6 7 7 7 7 7 6 6 5 5 4 3 3
4 4 3 3 3 4 4 3 3 2 2 2 1 1 0 1 3 4 4 4 4 4 5 5 4 3 3 2 4 7 8 8 9 9 9 8 7 8 7 7 6 5 5
6 5 4 4 4 4 3 3 2 4 2 2 2 1 2 2 0 2 4 4 4 4 4 4 5 5 4 3 3 6 8 9 10 10 9 8 8 9 10 10 9 9 8
7 6 6 6 6 4 4 3 3 2 3 2 2 3 2 2 1 1 1 3 4 4 5 4 5 5 5 4 5 7 8 8 8 9 9 9 8 8 10 11 12 12 12
9 9 8 8 8 6 7 7 6 6 3 3 2 2 3 3 3 1 0 2 2 3 4 4 4 4 5 5 4 7 9 9 8 8 8 9 9 10 11 13 14 14 15
8 10 9 9 9 7 8 8 7 8 6 6 5 3 2 2 2 2 1 1 2 2 2 2 3 4 4 5 7 10 9 9 9 9 9 9 10 11 12 14 16 17 18
7 8 9 9 8 8 8 8 8 8 7 7 6 4 4 3 1 1 1 0 1 2 2 1 2 3 4 4 5 11 10 11 11 11 11 11 12 13 14 16 17 19 20
7 8 9 10 10 9 9 8 8 7 6 6 6 5 3 3 2 1 1 1 1 2 2 3 2 2 3 4 6 10 7 12 12 12 12 13 14 15 16 17 18 19 20
8 10 10 10 10 10 9 8 7 7 6 6 5 5 3 2 2 1 0 1 1 2 3 3 2 3 4 5 7 6 7 11 14 13 13 14 14 15 16 17 19 20 20
9 10 10 10 10 9 9 8 7 6 7 5 4 4 3 2 2 1 1 1 1 2 3 2 3 5 6 7 9 7 8 13 13 14 14 14 14 16 17 18 19 20 21
9 9 9 9 9 9 8 7 7 7 7 6 5 5 4 3 2 1 1 1 1 2 3 4 3 4 6 8 9 8 7 7 7 13 15 15 15 16 17 18 19 19 19
9 8 8 8 8 8 7 7 7 7 7 6 6 5 5 4 4 2 1 2 2 3 3 5 4 4 6 8 9 9 8 7 7 12 15 16 17 17 16 16 16 16 16
8 7 7 7 7 7 7 7 6 6 6 5 5 5 5 5 4 3 3 2 2 2 3 4 6 4 5 6 7 8 9 7 8 9 13 14 15 15 16 16 16 15 15
6 6 6 6 5 5 6 6 6 6 6 6 6 5 6 5 5 4 3 3 3 4 4 4 6 6 6 6 5 6 8 7 8 9 10 10 12 15 16 17 17 17 15
5 4 4 4 4 3 4 5 5 6 7 7 7 7 7 8 6 5 4 4 4 4 5 6 7 7 8 7 7 5 8 9 9 6 6 7 8 8 9 12 14 15 15
4 4 4 3 4 3 5 7 6 5 6 7 8 9 8 7 8 9 10 10 9 7 8 7 7 8 10 9 8 7 7 8 6 4 5 9 8 8 8 7 11 14 14
3 3 3 3 3 5 6 6 8 4 5 6 7 7 7 7 9 7 10 13 12 13 11 8 9 10 10 9 8 9 8 8 8 7 6 8 7 8 8 8 13 14 14
2 2 3 3 3 4 7 6 8 5 6 7 7 7 8 8 8 9 9 10 11 10 10 7 8 10 10 10 8 8 8 8 8 7 5 6 7 7 9 8 10 11 12
2 2 2 3 3 5 7 7 7 5 6 8 8 8 8 8 11 11 9 10 11 10 9 9 10 11 12 12 9 5 5 5 6 7 3 3 5 8 8 6 7 10 11
2 2 3 3 3 4 7 8 8 4 6 8 9 9 10 9 12 13 9 8 10 10 9 10 9 8 7 7 6 3 3 4 5 5 2 3 5 5 5 4 7 7 7
Wind_Direction
177 184 200 207 214 197 188 193 229 28 10 15 38 111 151 191 200 195 220 218 206 204 203 197 190 190 191 192 192 190 187 188 187 190 192 195 199 202 204 204 204 205 210
178 187 204 213 215 200 187 161 146 125 69 57 58 61 73 95 136 151 175 225 226 216 211 204 199 195 194 195 195 195 192 191 192 190 192 197 199 202 207 208 207 206 210
186 185 194 206 207 174 149 125 112 99 92 75 62 54 55 45 57 82 79 56 23 249 215 191 187 194 200 203 205 205 199 193 190 187 185 186 181 178 190 198 190 180 190
181 176 185 198 168 141 138 132 118 99 83 74 59 36 36 31 30 27 28 26 14 11 350 234 214 209 213 220 219 212 199 190 185 187 186 172 161 150 140 134 131 120 110
174 165 169 156 140 132 128 131 96 102 106 96 83 47 25 20 9 15 16 13 11 8 7 343 297 257 234 230 226 219 213 211 204 200 200 192 178 165 159 155 151 146 134
150 144 140 137 132 121 111 103 97 72 81 93 77 53 25 18 19 23 18 15 11 13 12 4 356 331 301 271 252 238 232 228 221 214 212 207 194 183 177 174 174 179 190
120 124 124 122 124 122 118 115 105 90 58 23 84 56 30 32 37 29 29 31 24 18 22 19 9 357 339 327 308 276 260 254 246 238 228 222 210 196 194 192 203 224 241
96 104 109 113 114 110 103 102 110 111 67 24 104 127 92 27 32 28 31 42 32 27 28 24 18 9 349 341 319 302 290 281 270 258 247 238 225 218 218 219 224 237 252
78 81 89 96 93 96 107 102 112 130 133 64 35 124 163 201 81 23 27 33 27 31 23 18 26 17 6 358 336 328 318 310 291 277 271 263 251 242 240 239 241 245 253
65 67 74 81 77 74 76 72 69 84 116 113 61 41 55 91 131 121 13 15 20 30 21 23 24 25 21 11 2 356 346 338 319 300 292 286 280 266 259 256 253 255 259
58 58 59 66 69 67 67 63 62 63 65 86 86 73 61 53 53 101 345 352 4 15 20 26 34 30 23 15 4 8 5 360 354 341 325 308 294 286 277 272 269 267 269
61 58 64 66 67 66 65 65 66 65 63 68 65 58 64 68 54 61 64 346 327 335 1 19 29 21 14 6 355 354 349 344 338 332 327 319 306 297 291 285 281 279 278
65 58 63 64 64 64 65 65 65 61 59 66 66 61 57 54 57 79 94 347 312 315 325 333 356 5 8 356 342 342 338 335 329 320 311 305 299 293 289 286 284 283 282
69 65 65 64 63 62 64 63 62 60 59 62 63 62 61 46 39 55 114 164 292 300 300 293 305 307 340 333 322 327 322 320 317 311 306 301 296 292 289 287 286 285 284
75 69 68 66 62 60 60 62 60 53 54 53 53 53 56 45 38 36 67 191 211 267 281 292 297 302 317 312 308 310 307 306 305 302 299 296 293 291 289 286 285 283 281
73 72 68 66 61 56 54 58 54 45 48 38 35 39 33 19 12 8 345 259 222 225 260 277 277 293 304 306 307 309 300 302 300 298 295 293 291 289 287 285 284 282 280
71 72 71 68 64 57 52 53 49 42 40 30 22 19 9 354 348 334 308 269 235 216 253 278 272 286 293 296 306 304 297 292 288 292 293 291 289 287 286 286 285 283 281
71 72 73 70 65 58 51 49 41 36 30 19 6 359 350 345 333 313 292 273 256 233 241 278 290 293 288 295 298 300 300 299 295 292 290 290 290 290 290 288 287 284 280
72 69 70 67 61 54 48 42 36 28 18 6 353 344 332 330 322 312 299 283 272 264 240 263 287 288 288 293 300 299 300 298 298 295 294 291 293 295 295 292 288 284 277
70 66 65 62 55 48 41 32 26 19 8 357 347 335 325 314 302 303 302 298 292 289 279 277 288 294 291 292 289 299 307 310 305 301 294 293 293 296 294 291 289 287 282
66 62 59 47 36 35 29 28 20 13 2 353 346 339 327 324 335 334 327 314 306 298 298 296 296 296 296 299 300 299 301 308 302 289 297 300 298 295 293 291 289 287 286
48 45 39 27 16 12 10 19 21 10 356 348 341 336 329 332 338 337 332 325 314 301 295 289 288 289 292 293 294 296 299 303 303 296 297 303 300 296 296 290 286 287 287
27 20 10 4 352 342 355 1 6 4 343 335 331 328 327 325 329 322 320 318 311 301 288 276 276 279 286 290 295 297 294 293 290 297 300 296 300 299 301 297 296 295 293
6 349 340 337 335 339 352 354 353 352 332 326 321 314 310 312 316 322 317 311 307 302 295 283 267 275 279 284 282 283 288 290 286 285 274 284 302 308 308 304 297 296 298
359 347 337 343 343 339 355 0 0 337 327 324 319 314 310 308 309 318 317 309 307 306 306 296 284 282 283 286 287 283 289 298 307 311 297 276 300 312 306 298 303 304 305
9 11 21 14 5 358 4 6 0 339 328 325 320 316 314 310 309 314 311 301 301 306 315 320 319 317 313 311 311 285 284 298 306 305 307 302 301 315 305 298 310 314 315